| time (UTC) | temp C | wind direction | speed KPH | gust KPH | rain 1hr cm | rain 24hr cm | rain mn cm | humidity % | barometer mb |
| 20260505025304 | 17 | 240 | 3.2 | 3.2 | 0.00 | 0.00 | 0.00 | 50 | 1012.0 |
| 20260505024800 | 17 | 190 | 8.0 | 12.9 | 0.00 | 0.00 | 0.00 | 50 | 1012.0 |
| 20260505024258 | 17 | 192 | 8.0 | 9.7 | 0.00 | 0.00 | 0.00 | 50 | 1012.3 |
| 20260505023755 | 17 | 232 | 6.4 | 9.7 | 0.00 | 0.00 | 0.00 | 50 | 1012.3 |
| 20260505023252 | 17 | 181 | 6.4 | 8.0 | 0.00 | 0.00 | 0.00 | 50 | 1012.1 |
| 20260505022750 | 17 | 190 | 4.8 | 4.8 | 0.00 | 0.00 | 0.00 | 50 | 1012.3 |
| 20260505022246 | 17 | 198 | 4.8 | 4.8 | 0.00 | 0.00 | 0.00 | 50 | 1012.2 |
| 20260505021742 | 17 | 240 | 4.8 | 4.8 | 0.00 | 0.00 | 0.00 | 49 | 1012.3 |
| 20260505021240 | 17 | 204 | 4.8 | 8.0 | 0.00 | 0.00 | 0.00 | 49 | 1012.2 |
| 20260505020735 | 17 | 261 | 3.2 | 4.8 | 0.00 | 0.00 | 0.00 | 49 | 1012.2 |
| 20260505020231 | 17 | 187 | 4.8 | 8.0 | 0.00 | 0.00 | 0.00 | 48 | 1012.2 |
| 20260505015728 | 17 | 236 | 4.8 | 8.0 | 0.00 | 0.00 | 0.00 | 48 | 1012.2 |
| 20260505015225 | 18 | 233 | 4.8 | 8.0 | 0.00 | 0.00 | 0.00 | 48 | 1012.2 |
| 20260505014722 | 18 | 223 | 3.2 | 3.2 | 0.00 | 0.00 | 0.00 | 48 | 1012.1 |
| 20260505014220 | 18 | 207 | 1.6 | 3.2 | 0.00 | 0.00 | 0.00 | 48 | 1012.2 |
| 20260505013716 | 18 | 249 | 3.2 | 3.2 | 0.00 | 0.00 | 0.00 | 47 | 1012.0 |
| 20260505013213 | 18 | 226 | 6.4 | 8.0 | 0.00 | 0.00 | 0.00 | 47 | 1012.1 |
| 20260505012711 | 18 | 209 | 6.4 | 8.0 | 0.00 | 0.00 | 0.00 | 47 | 1012.0 |
| 20260505012208 | 18 | 195 | 4.8 | 8.0 | 0.00 | 0.00 | 0.00 | 46 | 1012.1 |
| 20260505011704 | 18 | 181 | 4.8 | 4.8 | 0.00 | 0.00 | 0.00 | 45 | 1012.1 |
| 20260505011201 | 18 | 177 | 6.4 | 8.0 | 0.00 | 0.00 | 0.00 | 45 | 1012.1 |
| 20260505010656 | 18 | 235 | 3.2 | 4.8 | 0.00 | 0.00 | 0.00 | 45 | 1011.9 |
| 20260505010154 | 18 | 223 | 6.4 | 9.7 | 0.00 | 0.00 | 0.00 | 45 | 1012.0 |
| 20260505005650 | 18 | 174 | 6.4 | 9.7 | 0.00 | 0.00 | 0.00 | 46 | 1011.8 |
| 20260505005147 | 18 | 216 | 3.2 | 3.2 | 0.00 | 0.00 | 0.00 | 45 | 1011.7 |
| 20260505004644 | 18 | 231 | 1.6 | 1.6 | 0.00 | 0.00 | 0.00 | 45 | 1011.8 |
| 20260505004140 | 18 | 231 | 1.6 | 3.2 | 0.00 | 0.00 | 0.00 | 44 | 1011.7 |
| 20260505003638 | 18 | 204 | 3.2 | 4.8 | 0.00 | 0.00 | 0.00 | 44 | 1011.5 |
| 20260505003135 | 18 | 233 | 3.2 | 3.2 | 0.00 | 0.00 | 0.00 | 44 | 1011.6 |
| 20260505002631 | 18 | 243 | 3.2 | 3.2 | 0.00 | 0.00 | 0.00 | 43 | 1011.5 |
| 20260505002129 | 19 | 247 | 1.6 | 1.6 | 0.00 | 0.00 | 0.00 | 44 | 1011.5 |
| 20260505001626 | 19 | 246 | 3.2 | 3.2 | 0.00 | 0.00 | 0.00 | 43 | 1011.4 |
| 20260505001124 | 19 | 185 | 3.2 | 4.8 | 0.00 | 0.00 | 0.00 | 43 | 1011.5 |
| 20260505000620 | 19 | 254 | 1.6 | 1.6 | 0.00 | 0.00 | 0.00 | 43 | 1011.5 |
| 20260505000119 | 19 | 254 | 1.6 | 1.6 | 0.00 | 0.00 | 0.00 | 43 | 1011.6 |
| 20260504235615 | 19 | 251 | 1.6 | 3.2 | 0.00 | 0.00 | 0.00 | 42 | 1011.6 |
| 20260504235111 | 19 | 248 | 3.2 | 3.2 | 0.00 | 0.00 | 0.00 | 42 | 1011.4 |
| 20260504234608 | 19 | 249 | 1.6 | 3.2 | 0.00 | 0.00 | 0.00 | 42 | 1011.5 |
| 20260504234106 | 20 | 256 | 1.6 | 1.6 | 0.00 | 0.00 | 0.00 | 41 | 1011.3 |
| 20260504233602 | 20 | 191 | 3.2 | 3.2 | 0.00 | 0.00 | 0.00 | 41 | 1011.4 |
| 20260504233058 | 20 | 260 | 0.0 | 1.6 | 0.00 | 0.00 | 0.00 | 41 | 1011.5 |
| 20260504232555 | 20 | 250 | 3.2 | 3.2 | 0.00 | 0.00 | 0.00 | 41 | 1011.4 |
| 20260504232053 | 20 | 186 | 4.8 | 4.8 | 0.00 | 0.00 | 0.00 | 40 | 1011.3 |
| 20260504231549 | 20 | 225 | 4.8 | 8.0 | 0.00 | 0.00 | 0.00 | 41 | 1011.2 |
| 20260504231045 | 20 | 262 | 1.6 | 3.2 | 0.00 | 0.00 | 0.00 | 40 | 1011.4 |
| 20260504230542 | 20 | 243 | 3.2 | 3.2 | 0.00 | 0.00 | 0.00 | 42 | 1011.4 |
| 20260504230041 | 20 | 256 | 1.6 | 1.6 | 0.00 | 0.00 | 0.00 | 41 | 1011.4 |
| 20260504225538 | 20 | 247 | 3.2 | 3.2 | 0.00 | 0.00 | 0.00 | 40 | 1011.3 |
| 20260504225035 | 20 | 250 | 1.6 | 1.6 | 0.00 | 0.00 | 0.00 | 39 | 1011.4 |
| 20260504224531 | 20 | 262 | 3.2 | 3.2 | 0.00 | 0.00 | 0.00 | 40 | 1011.5 |
| 20260504224028 | 20 | 259 | 1.6 | 1.6 | 0.00 | 0.00 | 0.00 | 39 | 1011.2 |
| 20260504223525 | 20 | 254 | 3.2 | 3.2 | 0.00 | 0.00 | 0.00 | 39 | 1011.6 |
| 20260504223021 | 20 | 190 | 8.0 | 11.3 | 0.00 | 0.00 | 0.00 | 39 | 1011.4 |
| 20260504222518 | 20 | 207 | 6.4 | 8.0 | 0.00 | 0.00 | 0.00 | 39 | 1011.6 |
| 20260504222016 | 20 | 209 | 6.4 | 8.0 | 0.00 | 0.00 | 0.00 | 38 | 1011.3 |
| 20260504221513 | 20 | 277 | 1.6 | 1.6 | 0.00 | 0.00 | 0.00 | 38 | 1011.4 |
| 20260504221009 | 20 | 274 | 3.2 | 3.2 | 0.00 | 0.00 | 0.00 | 38 | 1011.4 |
| 20260504220506 | 20 | 262 | 3.2 | 4.8 | 0.00 | 0.00 | 0.00 | 38 | 1011.5 |
| 20260504220003 | 20 | 257 | 1.6 | 1.6 | 0.00 | 0.00 | 0.00 | 38 | 1011.5 |
| 20260504215459 | 20 | 262 | 4.8 | 8.0 | 0.00 | 0.00 | 0.00 | 38 | 1011.6 |
| 20260504214956 | 20 | 223 | 4.8 | 4.8 | 0.00 | 0.00 | 0.00 | 37 | 1011.5 |
| 20260504214453 | 20 | 262 | 1.6 | 3.2 | 0.00 | 0.00 | 0.00 | 37 | 1011.5 |
| 20260504213949 | 20 | 199 | 4.8 | 4.8 | 0.00 | 0.00 | 0.00 | 38 | 1011.7 |
| 20260504213445 | 21 | 266 | 3.2 | 3.2 | 0.00 | 0.00 | 0.00 | 37 | 1011.6 |
| 20260504212943 | 20 | 286 | 3.2 | 4.8 | 0.00 | 0.00 | 0.00 | 38 | 1011.6 |
| 20260504212438 | 20 | 246 | 0.0 | 1.6 | 0.00 | 0.00 | 0.00 | 38 | 1011.8 |
| 20260504211936 | 20 | 240 | 4.8 | 4.8 | 0.00 | 0.00 | 0.00 | 38 | 1011.7 |
| 20260504211432 | 21 | 206 | 4.8 | 8.0 | 0.00 | 0.00 | 0.00 | 38 | 1011.5 |
| 20260504210930 | 21 | 254 | 1.6 | 3.2 | 0.00 | 0.00 | 0.00 | 38 | 1011.5 |
| 20260504210427 | 21 | 203 | 3.2 | 3.2 | 0.00 | 0.00 | 0.00 | 38 | 1011.5 |
| 20260504205924 | 21 | 226 | 3.2 | 3.2 | 0.00 | 0.00 | 0.00 | 38 | 1011.5 |
| 20260504205421 | 20 | 245 | 1.6 | 1.6 | 0.00 | 0.00 | 0.00 | 38 | 1011.8 |
| 20260504204919 | 20 | 245 | 1.6 | 3.2 | 0.00 | 0.00 | 0.00 | 38 | 1011.4 |
| 20260504204417 | 20 | 184 | 4.8 | 4.8 | 0.00 | 0.00 | 0.00 | 38 | 1011.4 |
| 20260504203916 | 20 | 204 | 4.8 | 4.8 | 0.00 | 0.00 | 0.00 | 38 | 1011.5 |
| 20260504203414 | 21 | 181 | 6.4 | 9.7 | 0.00 | 0.00 | 0.00 | 37 | 1011.6 |
| 20260504202909 | 21 | 245 | 3.2 | 4.8 | 0.00 | 0.00 | 0.00 | 37 | 1011.8 |
| 20260504202406 | 21 | 262 | 1.6 | 3.2 | 0.00 | 0.00 | 0.00 | 37 | 1011.7 |
| 20260504201903 | 21 | 211 | 3.2 | 3.2 | 0.00 | 0.00 | 0.00 | 37 | 1011.7 |
| 20260504201401 | 21 | 239 | 3.2 | 3.2 | 0.00 | 0.00 | 0.00 | 36 | 1011.7 |
| 20260504200857 | 21 | 240 | 4.8 | 4.8 | 0.00 | 0.00 | 0.00 | 36 | 1011.9 |
| 20260504200354 | 21 | 248 | 4.8 | 4.8 | 0.00 | 0.00 | 0.00 | 37 | 1011.9 |
| 20260504195851 | 21 | 250 | 4.8 | 8.0 | 0.00 | 0.00 | 0.00 | 37 | 1011.8 |
| 20260504195346 | 21 | 232 | 4.8 | 4.8 | 0.00 | 0.00 | 0.00 | 37 | 1012.0 |
| 20260504194843 | 21 | 240 | 3.2 | 3.2 | 0.00 | 0.00 | 0.00 | 36 | 1012.0 |
| 20260504194339 | 21 | 283 | 3.2 | 4.8 | 0.00 | 0.00 | 0.00 | 36 | 1011.9 |
| 20260504193835 | 21 | 233 | 6.4 | 8.0 | 0.00 | 0.00 | 0.00 | 36 | 1011.9 |
| 20260504193333 | 21 | 278 | 1.6 | 3.2 | 0.00 | 0.00 | 0.00 | 35 | 1012.0 |
| 20260504192831 | 21 | 271 | 3.2 | 3.2 | 0.00 | 0.00 | 0.00 | 36 | 1012.1 |
| 20260504192329 | 21 | 132 | 3.2 | 4.8 | 0.00 | 0.00 | 0.00 | 36 | 1012.2 |
| 20260504191827 | 21 | 229 | 4.8 | 4.8 | 0.00 | 0.00 | 0.00 | 35 | 1012.1 |
| 20260504191324 | 21 | 268 | 3.2 | 4.8 | 0.00 | 0.00 | 0.00 | 35 | 1012.3 |
| 20260504190820 | 21 | 217 | 3.2 | 4.8 | 0.00 | 0.00 | 0.00 | 35 | 1012.4 |
| 20260504190316 | 21 | 187 | 6.4 | 11.3 | 0.00 | 0.00 | 0.00 | 36 | 1012.3 |
| 20260504185813 | 21 | 343 | 4.8 | 4.8 | 0.00 | 0.00 | 0.00 | 35 | 1012.6 |
| 20260504185310 | 21 | 179 | 3.2 | 4.8 | 0.00 | 0.00 | 0.00 | 35 | 1012.6 |
| 20260504184806 | 22 | 179 | 4.8 | 8.0 | 0.00 | 0.00 | 0.00 | 34 | 1012.7 |
| 20260504184302 | 22 | 293 | 1.6 | 1.6 | 0.00 | 0.00 | 0.00 | 34 | 1012.7 |
| 20260504183758 | 22 | 207 | 1.6 | 4.8 | 0.00 | 0.00 | 0.00 | 34 | 1012.7 |
| 20260504183255 | 22 | 270 | 1.6 | 3.2 | 0.00 | 0.00 | 0.00 | 36 | 1012.9 |
| 20260504182753 | 21 | 185 | 3.2 | 4.8 | 0.00 | 0.00 | 0.00 | 35 | 1012.9 |
| 20260504182249 | 22 | 269 | 6.4 | 8.0 | 0.00 | 0.00 | 0.00 | 33 | 1013.0 |
| 20260504181747 | 22 | 201 | 1.6 | 1.6 | 0.00 | 0.00 | 0.00 | 34 | 1012.9 |
| 20260504181244 | 22 | 162 | 4.8 | 8.0 | 0.00 | 0.00 | 0.00 | 34 | 1013.0 |
| 20260504180743 | 22 | 193 | 8.0 | 8.0 | 0.00 | 0.00 | 0.00 | 34 | 1013.0 |
| 20260504180242 | 22 | 257 | 4.8 | 4.8 | 0.00 | 0.00 | 0.00 | 33 | 1013.1 |
| 20260504175739 | 23 | 302 | 1.6 | 1.6 | 0.00 | 0.00 | 0.00 | 33 | 1013.3 |
| 20260504175236 | 23 | 289 | 1.6 | 1.6 | 0.00 | 0.00 | 0.00 | 33 | 1013.3 |
| 20260504174734 | 22 | 252 | 1.6 | 1.6 | 0.00 | 0.00 | 0.00 | 34 | 1013.5 |
| 20260504174232 | 22 | 278 | 4.8 | 4.8 | 0.00 | 0.00 | 0.00 | 34 | 1013.6 |
| 20260504173727 | 22 | 256 | 3.2 | 3.2 | 0.00 | 0.00 | 0.00 | 34 | 1013.3 |
| 20260504173225 | 22 | 236 | 3.2 | 8.0 | 0.00 | 0.00 | 0.00 | 34 | 1013.6 |
| 20260504172721 | 21 | 294 | 0.0 | 0.0 | 0.00 | 0.00 | 0.00 | 33 | 1013.7 |
| 20260504172218 | 22 | 278 | 3.2 | 3.2 | 0.00 | 0.00 | 0.00 | 35 | 1013.4 |
| 20260504171714 | 22 | 256 | 4.8 | 4.8 | 0.00 | 0.00 | 0.00 | 34 | 1013.8 |
| 20260504171211 | 21 | 252 | 3.2 | 4.8 | 0.00 | 0.00 | 0.00 | 34 | 1013.6 |
| 20260504170708 | 21 | 187 | 4.8 | 8.0 | 0.00 | 0.00 | 0.00 | 33 | 1013.9 |
| 20260504170206 | 21 | 276 | 3.2 | 4.8 | 0.00 | 0.00 | 0.00 | 34 | 1014.1 |
| 20260504160124 | 21 | 283 | 1.6 | 1.6 | 0.00 | 0.00 | 0.00 | 38 | 1014.8 |
| 20260504151051 | 20 | 212 | 4.8 | 4.8 | 0.00 | 0.00 | 0.00 | 38 | 1015.2 |
| 20260504150548 | 20 | 280 | 1.6 | 3.2 | 0.00 | 0.00 | 0.00 | 37 | 1015.1 |
| 20260504141015 | 17 | 196 | 6.4 | 8.0 | 0.00 | 0.00 | 0.00 | 50 | 1015.2 |
| 20260504140511 | 17 | 245 | 1.6 | 3.2 | 0.00 | 0.00 | 0.00 | 50 | 1015.2 |
| 20260504130436 | 15 | 197 | 8.0 | 9.7 | 0.00 | 0.00 | 0.00 | 62 | 1015.4 |
| 20260504110323 | 8 | 214 | 3.2 | 3.2 | 0.00 | 0.00 | 0.00 | 78 | 1016.0 |
| 20260504100240 | 8 | 230 | 4.8 | 4.8 | 0.00 | 0.00 | 0.00 | 73 | 1016.1 |
| 20260504081633 | 8 | 236 | 3.2 | 3.2 | 0.00 | 0.00 | 0.00 | 60 | 1015.9 |
| 20260504081129 | 8 | 237 | 4.8 | 8.0 | 0.00 | 0.00 | 0.00 | 60 | 1015.8 |
| 20260504080626 | 8 | 247 | 3.2 | 4.8 | 0.00 | 0.00 | 0.00 | 61 | 1016.0 |
| 20260504080122 | 8 | 241 | 3.2 | 4.8 | 0.00 | 0.00 | 0.00 | 61 | 1015.9 |
| 20260504050439 | 10 | 272 | 1.6 | 3.2 | 0.00 | 0.00 | 0.00 | 50 | 1015.9 |
| 20260504045936 | 10 | 257 | 1.6 | 3.2 | 0.00 | 0.00 | 0.00 | 50 | 1015.8 |
| 20260504045432 | 10 | 282 | 3.2 | 3.2 | 0.00 | 0.00 | 0.00 | 51 | 1015.9 |
| 20260504044928 | 10 | 264 | 1.6 | 3.2 | 0.00 | 0.00 | 0.00 | 50 | 1015.7 |
| 20260504044426 | 10 | 272 | 3.2 | 3.2 | 0.00 | 0.00 | 0.00 | 49 | 1015.7 |
| 20260504043923 | 10 | 274 | 1.6 | 1.6 | 0.00 | 0.00 | 0.00 | 49 | 1015.7 |
| 20260504043420 | 10 | 278 | 0.0 | 0.0 | 0.00 | 0.00 | 0.00 | 50 | 1015.7 |
| 20260504042917 | 10 | 277 | 1.6 | 3.2 | 0.00 | 0.00 | 0.00 | 49 | 1015.6 |
| 20260504042414 | 10 | 255 | 3.2 | 3.2 | 0.00 | 0.00 | 0.00 | 49 | 1015.6 |
| 20260504041910 | 10 | 268 | 0.0 | 1.6 | 0.00 | 0.00 | 0.00 | 49 | 1015.7 |
| 20260504041406 | 10 | 279 | 1.6 | 1.6 | 0.00 | 0.00 | 0.00 | 48 | 1015.6 |
| 20260504040902 | 10 | 278 | 1.6 | 1.6 | 0.00 | 0.00 | 0.00 | 48 | 1015.5 |
| 20260504040400 | 10 | 272 | 1.6 | 1.6 | 0.00 | 0.00 | 0.00 | 49 | 1015.3 |
| 20260504035856 | 10 | 269 | 1.6 | 1.6 | 0.00 | 0.00 | 0.00 | 49 | 1015.4 |
| 20260504035354 | 10 | 271 | 0.0 | 1.6 | 0.00 | 0.00 | 0.00 | 48 | 1015.4 |
| 20260504034850 | 10 | 278 | 1.6 | 1.6 | 0.00 | 0.00 | 0.00 | 49 | 1015.3 |
| 20260504034348 | 10 | 273 | 3.2 | 3.2 | 0.00 | 0.00 | 0.00 | 49 | 1015.4 |
| 20260504033844 | 10 | 267 | 3.2 | 3.2 | 0.00 | 0.00 | 0.00 | 49 | 1015.1 |
| 20260504033343 | 10 | 272 | 1.6 | 1.6 | 0.00 | 0.00 | 0.00 | 50 | 1015.4 |
| 20260504032839 | 10 | 273 | 0.0 | 1.6 | 0.00 | 0.00 | 0.00 | 49 | 1015.1 |
| 20260504032336 | 10 | 275 | 1.6 | 1.6 | 0.00 | 0.00 | 0.00 | 48 | 1015.4 |
| 20260504031833 | 10 | 267 | 1.6 | 1.6 | 0.00 | 0.00 | 0.00 | 49 | 1015.3 |
| 20260504031330 | 10 | 262 | 1.6 | 1.6 | 0.00 | 0.00 | 0.00 | 49 | 1015.3 |
| 20260504030826 | 10 | 260 | 1.6 | 3.2 | 0.00 | 0.00 | 0.00 | 49 | 1015.4 |
| 20260504030324 | 10 | 274 | 1.6 | 1.6 | 0.00 | 0.00 | 0.00 | 47 | 1015.2 |
| 20260504025820 | 10 | 282 | 0.0 | 1.6 | 0.00 | 0.00 | 0.00 | 48 | 1015.4 |